Hourly Data Report for June 18, 2017

FISHER BRANCH (AUT)
MANITOBA

51°05'00.100" N
97°33'16.200" W
253.00 m
50309J6
71442
WSZ

Download Data

Hourly Data (June 2017)
Hourly Data Report for June 18, 2017
TIME
LST
Temp Definition
°C
Dew Point Definition
°C
Rel Hum Definition
%
Precip. Amount Definition
mm

Wind Dir Definition
10's deg

Wind Spd Definition
km/h
Visibility Definition
km
Stn Press Definition
kPa
Hmdx Definition


Wind Chill Definition


Weather Definition


00:00 10.9 10.1 95 0.0 32 10   97.70     LegendNANA
01:00 10.9 10.2 95 0.0 33 10   97.70     LegendNANA
02:00 10.8 9.9 95 0.0 31 12   97.70     LegendNANA
03:00 10.8 10.1 96 0.0 32 9   97.73     LegendNANA
04:00 10.7 9.9 94 0.0 33 12   97.76     LegendNANA
05:00 10.8 9.5 92 0.0 32 11   97.79     LegendNANA
06:00 11.0 9.6 91 0.0 33 10   97.82     LegendNANA
07:00 10.8 10.1 95 0.0 32 11   97.85     LegendNANA
08:00 11.1 10.3 95 0.0 32 11   97.84     LegendNANA
09:00 12.4 11.3 93 0.3 34 8   97.85     LegendNANA
10:00 13.9 10.0 77 0.0 1 11   97.85     LegendNANA
11:00 15.5 10.1 70 0.0 1 10   97.83     LegendNANA
12:00 16.2 7.9 58 0.0 36 13   97.83     LegendNANA
13:00 17.6 6.3 48 0.0 2 13   97.84     LegendNANA
14:00 17.4 6.3 48 0.0 35 16   97.84     LegendNANA
15:00 17.9 7.8 52 0.0 34 15   97.86     LegendNANA
16:00 18.8 7.3 47 0.0 35 11   97.85     LegendNANA
17:00 18.3 7.5 50 0.0 3 11   97.86     LegendNANA
18:00 17.5 6.2 47 0.0 2 13   97.91     LegendNANA
19:00 15.8 7.1 56 0.0 36 7   97.94     LegendNANA
20:00 15.4 6.2 54 0.0 35 10   97.96     LegendNANA
21:00 12.4 4.4 58 0.0 35 9   98.00     LegendNANA
22:00 9.5 3.8 68 0.0 32 6   98.04     LegendNANA
23:00 8.4 3.6 72 0.0 29 10   98.05     LegendNANA

Notes on Data Quality.

Legend

  • E = Estimated
  • M = Missing
  • NA = Not Available*
  • [empty] = Indicates an unobserved value
Date modified: